Simultaneous Nadir Overpasses (SNOs) Predictions

Prediction of SNOs between AQUA and GOES-15 Satellite Orbit:

Table of predicted SNOs for the next 14.0 days since TLE Epoch: 9/21/2019
Index Date Time (AQUA) AQUA Lat,Lon GOES-15 Lat,Lon Distance(km) Time Diff (sec)
1 09/21/2019 10:06:54 0.34,-127.82 0.33,-127.93 13.12 80
2 09/23/2019 09:54:44 -0.33,-124.87 0.33,-127.87 340.83 80
3 09/23/2019 22:16:08 -0.77,-130.07 -0.31,-127.82 254.94 80
4 09/25/2019 22:03:57 -0.17,-127.11 -0.31,-127.75 72.59 80
5 09/27/2019 21:51:46 0.45,-124.15 -0.31,-127.67 400.06 80
6 09/28/2019 10:13:01 0.65,-129.31 0.29,-127.68 185.42 80
7 09/30/2019 10:00:50 0.04,-126.35 0.30,-127.60 141.71 80
8 09/30/2019 22:22:15 -1.13,-131.55 -0.28,-127.54 455.38 80
9 10/02/2019 09:48:39 -0.58,-123.39 0.30,-127.51 468.41 80
10 10/02/2019 22:10:04 -0.51,-128.59 -0.28,-127.46 128.68 80
11 10/04/2019 21:57:52 0.06,-125.62 -0.28,-127.36 197.46 80




NCC Satellite Simultaneous Nadir Overpasses (SNOs) Prediction Service
